Weather reports worldwide

Advertisment
Toledo, Spain (8272): temperature & dewpoint: 14.08.2019 06:00:00 - 20.08.2019 06:00:00 (CEST)Toledo, Spain (8272): wind speed: 14.08.2019 06:00:00 - 20.08.2019 06:00:00 (CEST)Toledo, Spain (8272): wind direction: 14.08.2019 06:00:00 - 20.08.2019 06:00:00 (CEST)Toledo, Spain (8272): reduced air pressure: 14.08.2019 06:00:00 - 20.08.2019 06:00:00 (CEST)Toledo, Spain (8272): visibility: 14.08.2019 06:00:00 - 20.08.2019 06:00:00 (CEST)Toledo, Spain (8272): precipitation: 14.08.2019 06:00:00 - 20.08.2019 06:00:00 (CEST)
Date & Time tt [°C] td [°C] ff [km/h] ff [kn] dd ppp [hPa] vv [km] rr [mm]
20.08.2019 06:00:00 22,7 12,3 13 7 N 1013,0 20 0,0
20.08.2019 05:00:00 24,3 11,3 5 3 ENE 1012,7 20 -
20.08.2019 04:00:00 25,1 10,5 9 5 ENE 1012,4 20 0,0
20.08.2019 03:00:00 25,6 8,6 11 6 NE 1012,6 20 0,0
20.08.2019 02:00:00 26,2 5,7 5 3 NNW 1012,6 20 -
20.08.2019 01:00:00 26,8 5,1 9 5 WNW 1012,4 20 0,0
20.08.2019 00:00:00 27,5 3,2 9 5 WNW 1011,8 20 0,0
19.08.2019 23:00:00 28,3 3,2 13 7 W 1011,3 20 -
19.08.2019 22:00:00 29,3 3,3 9 5 WNW 1010,9 20 0,0
19.08.2019 21:00:00 30,3 4,1 16 9 WNW 1010,2 20 0,0
19.08.2019 20:00:00 31,2 7,0 18 10 WNW 1009,7 20 -
19.08.2019 19:00:00 32,4 9,2 21 11 WNW 1009,2 20 0,0
19.08.2019 18:00:00 33,4 10,1 26 14 WNW 1009,0 20 0,0
19.08.2019 17:00:00 33,6 10,2 16 9 WNW 1009,4 20 -
19.08.2019 16:00:00 34,5 11,0 18 10 W 1009,7 20 0,0
19.08.2019 15:00:00 33,4 10,7 15 8 WNW 1010,3 20 0,0
19.08.2019 14:00:00 32,6 11,2 8 4 N 1010,8 20 -
19.08.2019 13:00:00 31,0 11,9 8 4 NNE 1011,7 20 0,0
19.08.2019 12:00:00 29,4 11,9 9 5 WSW 1012,2 20 0,0
19.08.2019 11:00:00 27,2 14,9 8 4 WNW 1012,8 20 -
19.08.2019 10:00:00 25,1 14,8 11 6 W 1012,8 20 0,0
19.08.2019 09:00:00 22,6 14,2 8 4 WSW 1013,7 20 0,0
19.08.2019 08:00:00 20,9 13,6 4 2 W 1013,8 20 -
19.08.2019 07:00:00 21,3 13,5 5 3 NNW 1013,3 20 0,0
19.08.2019 06:00:00 22,6 12,8 2 1 NW 1012,6 20 0,0
19.08.2019 05:00:00 23,1 12,1 2 1 WSW 1012,8 20 -
19.08.2019 04:00:00 23,9 11,2 5 3 W 1012,6 20 0,0
19.08.2019 03:00:00 23,8 9,4 9 5 NNW 1012,8 20 0,0
19.08.2019 02:00:00 24,7 7,8 11 6 WNW 1013,0 20 -
19.08.2019 01:00:00 25,2 6,4 8 4 NW 1012,5 20 0,0
19.08.2019 00:00:00 26,4 6,4 5 3 SSW 1011,9 20 0,0
18.08.2019 23:00:00 28,1 6,2 13 7 WNW 1011,4 20 -
18.08.2019 22:00:00 29,2 5,9 13 7 WNW 1010,3 20 0,0
18.08.2019 21:00:00 31,0 4,7 16 9 WNW 1009,4 20 0,0
18.08.2019 20:00:00 33,3 4,9 29 16 WNW 1008,7 20 -
18.08.2019 19:00:00 34,3 5,7 29 16 WNW 1008,5 20 0,0
18.08.2019 18:00:00 35,1 6,4 24 13 WNW 1008,2 20 0,0
18.08.2019 17:00:00 36,4 6,5 22 12 WNW 1008,0 20 -
18.08.2019 16:00:00 34,8 5,3 21 11 WNW 1008,5 20 0,0
18.08.2019 15:00:00 36,2 4,5 18 10 WNW 1008,6 20 0,0
18.08.2019 14:00:00 35,0 6,3 21 11 WNW 1009,2 20 -
18.08.2019 13:00:00 33,4 5,0 16 9 NW 1010,2 20 0,0
18.08.2019 12:00:00 31,5 7,9 13 7 W 1010,9 20 0,0
18.08.2019 11:00:00 29,3 7,8 13 7 WNW 1011,3 20 -
18.08.2019 10:00:00 27,6 5,8 5 3 SW 1011,4 20 0,0
18.08.2019 09:00:00 25,1 3,7 4 2 NW 1011,2 20 0,0
18.08.2019 08:00:00 23,0 3,0 2 1 S 1011,5 20 -
18.08.2019 07:00:00 23,1 2,5 2 1 NW 1010,9 20 0,0
18.08.2019 06:00:00 24,3 1,8 5 3 NNW 1010,6 20 0,0
18.08.2019 05:00:00 25,9 0,5 5 3 NNW 1010,4 20 -
18.08.2019 04:00:00 26,1 0,7 5 3 W 1010,7 20 0,0
18.08.2019 03:00:00 26,6 1,8 2 1 SW 1010,6 20 0,0
18.08.2019 02:00:00 27,3 1,6 4 2 SW 1010,7 20 -
18.08.2019 01:00:00 28,3 1,7 2 1 W 1010,4 20 0,0
18.08.2019 00:00:00 29,1 1,5 4 2 S 1010,2 20 0,0
17.08.2019 23:00:00 30,2 3,2 2 1 SSE 1009,7 20 -
17.08.2019 22:00:00 32,4 2,4 11 6 WNW 1009,1 20 0,0
17.08.2019 21:00:00 35,1 3,6 15 8 WNW 1008,3 20 0,0
17.08.2019 20:00:00 37,1 4,1 21 11 WNW 1007,8 20 -
17.08.2019 19:00:00 38,4 4,0 21 11 W 1007,8 20 0,0
17.08.2019 18:00:00 38,7 4,2 22 12 W 1008,0 20 0,0
17.08.2019 17:00:00 38,5 5,2 26 14 WNW 1008,5 20 -
17.08.2019 16:00:00 37,8 7,7 28 15 WNW 1009,2 20 0,0
17.08.2019 15:00:00 37,7 8,5 16 9 WNW 1009,9 20 0,0
17.08.2019 14:00:00 36,9 7,8 13 7 WNW 1010,7 20 -
17.08.2019 13:00:00 35,8 7,8 13 7 WNW 1011,7 3,5 0,0
17.08.2019 12:00:00 33,8 8,4 8 4 S 1012,6 3,8 0,0
17.08.2019 11:00:00 31,3 8,3 5 3 SSE 1013,3 2,5 -
17.08.2019 10:00:00 28,2 8,5 4 2 S 1014,0 1,4 0,0
17.08.2019 09:00:00 25,8 7,8 2 1 S 1014,2 2,0 0,0
17.08.2019 08:00:00 22,5 6,7 4 2 NNW 1014,4 20 -
17.08.2019 07:00:00 23,7 6,0 2 1 E 1014,0 20 0,0
17.08.2019 06:00:00 24,0 7,6 5 3 S 1013,8 - 0,0
17.08.2019 05:00:00 25,3 6,5 4 2 NNW 1013,7 16 -
17.08.2019 04:00:00 25,8 6,9 5 3 WNW 1013,6 11 0,0
17.08.2019 03:00:00 26,6 7,6 4 2 WNW 1013,2 11 0,0
17.08.2019 02:00:00 27,7 7,5 5 3 NW 1013,0 20 -
17.08.2019 01:00:00 28,5 8,2 4 2 NW 1013,0 20 0,0
17.08.2019 00:00:00 29,5 8,5 2 1 S 1012,5 9 0,0
16.08.2019 23:00:00 30,9 8,6 9 5 WNW 1012,3 13 -
16.08.2019 22:00:00 32,6 8,8 11 6 WNW 1011,2 6 0,0
16.08.2019 21:00:00 34,8 9,2 16 9 WNW 1010,3 20 0,0
16.08.2019 20:00:00 36,8 10,2 16 9 WNW 1009,5 20 -
16.08.2019 19:00:00 37,9 9,5 15 8 NW 1009,3 20 0,0
16.08.2019 18:00:00 38,0 9,6 21 11 W 1009,6 20 0,0
16.08.2019 17:00:00 37,9 9,5 21 11 W 1010,1 20 -
16.08.2019 16:00:00 37,6 9,2 15 8 W 1010,8 20 0,0
16.08.2019 15:00:00 36,7 9,3 15 8 W 1011,8 20 0,0
16.08.2019 14:00:00 34,0 11,2 8 4 SE 1013,0 20 -
16.08.2019 13:00:00 32,3 13,0 9 5 SE 1013,9 20 0,0
16.08.2019 12:00:00 29,4 13,6 13 7 ESE 1015,1 20 0,0
16.08.2019 11:00:00 27,0 13,7 13 7 ESE 1015,6 20 -
16.08.2019 10:00:00 25,5 13,4 15 8 E 1016,1 20 0,0
16.08.2019 09:00:00 23,6 13,5 9 5 E 1016,5 20 0,0
16.08.2019 08:00:00 20,8 11,4 11 6 E 1016,5 20 -
16.08.2019 07:00:00 21,4 11,1 11 6 E 1016,1 20 0,0
16.08.2019 06:00:00 22,3 10,4 4 2 ENE 1015,7 20 0,0
16.08.2019 05:00:00 22,8 10,2 4 2 N 1015,7 20 -
16.08.2019 04:00:00 24,8 10,6 9 5 ENE 1015,1 20 0,0
16.08.2019 03:00:00 26,2 10,8 13 7 ENE 1014,8 20 0,0
16.08.2019 02:00:00 27,2 7,6 4 2 ESE 1014,9 20 -
16.08.2019 01:00:00 27,5 6,3 8 4 N 1014,6 20 0,0
16.08.2019 00:00:00 28,5 7,1 2 1 SSW 1014,0 20 0,0
15.08.2019 23:00:00 30,4 7,6 2 1 S 1013,2 20 -
15.08.2019 22:00:00 32,0 6,9 8 4 N 1012,4 20 0,0
15.08.2019 21:00:00 34,8 7,0 5 3 NNW 1011,7 20 0,0
15.08.2019 20:00:00 36,5 7,5 11 6 NW 1011,1 20 -
15.08.2019 19:00:00 37,6 7,5 9 5 WNW 1011,2 20 0,0
15.08.2019 18:00:00 37,2 7,2 9 5 N 1011,3 20 0,0
15.08.2019 17:00:00 37,0 7,9 8 4 N 1011,9 20 -
15.08.2019 16:00:00 36,5 5,7 11 6 NNE 1012,8 20 0,0
15.08.2019 15:00:00 36,1 7,2 13 7 WNW 1013,3 20 0,0
15.08.2019 14:00:00 35,2 8,1 9 5 S 1014,0 20 -
15.08.2019 13:00:00 33,5 6,7 9 5 S 1015,0 20 0,0
15.08.2019 12:00:00 30,1 5,4 5 3 ESE 1016,3 20 0,0
15.08.2019 11:00:00 26,8 4,5 11 6 SE 1017,1 20 -
15.08.2019 10:00:00 23,8 3,7 9 5 ESE 1017,7 20 0,0
15.08.2019 09:00:00 21,4 4,5 5 3 ESE 1018,1 20 0,0
15.08.2019 08:00:00 19,6 6,3 0 0 N 1018,2 20 -
15.08.2019 07:00:00 20,9 6,8 5 3 E 1017,1 20 0,0
15.08.2019 06:00:00 22,2 6,4 2 1 ESE 1016,5 20 0,0
15.08.2019 05:00:00 21,8 3,0 2 1 SW 1016,5 20 -
15.08.2019 04:00:00 23,1 3,1 2 1 SW 1016,3 20 0,0
15.08.2019 03:00:00 24,1 2,3 4 2 W 1016,2 20 0,0
15.08.2019 02:00:00 24,8 2,2 4 2 NW 1016,4 20 -
15.08.2019 01:00:00 25,6 2,3 4 2 WNW 1016,2 20 0,0
15.08.2019 00:00:00 27,5 2,5 2 1 ENE 1015,8 20 0,0
14.08.2019 23:00:00 28,4 2,5 4 2 S 1015,3 20 -
14.08.2019 22:00:00 30,2 2,4 8 4 NNW 1014,3 20 0,0
14.08.2019 21:00:00 33,6 2,4 4 2 W 1013,2 20 0,0
14.08.2019 20:00:00 34,9 2,4 11 6 NW 1012,8 20 -
14.08.2019 19:00:00 35,3 1,6 13 7 W 1013,1 20 0,0
14.08.2019 18:00:00 35,2 2,6 15 8 NNW 1013,4 20 0,0
14.08.2019 17:00:00 35,2 2,6 9 5 WNW 1013,8 20 -
14.08.2019 16:00:00 34,5 3,1 9 5 W 1014,4 20 0,0
14.08.2019 15:00:00 32,9 1,9 11 6 N 1015,4 20 0,0
14.08.2019 14:00:00 32,3 5,0 9 5 SSW 1016,2 20 -
14.08.2019 13:00:00 29,9 9,4 9 5 SSE 1017,1 20 0,0
14.08.2019 12:00:00 27,2 9,5 5 3 ENE 1018,2 20 0,0
14.08.2019 11:00:00 23,9 6,2 8 4 ESE 1018,9 20 -
14.08.2019 10:00:00 21,4 8,0 11 6 E 1019,5 20 0,0
14.08.2019 09:00:00 19,0 1,9 4 2 SE 1019,8 20 0,0
14.08.2019 08:00:00 16,0 0,9 2 1 ESE 1020,0 20 -
14.08.2019 07:00:00 16,8 0,4 5 3 E 1019,6 20 0,0
14.08.2019 06:00:00 18,7 0,3 4 2 E 1019,3 20 0,0

tt = temperature
td = dewpoint
ff = wind speed
dd = wind direction
ppp = reduced air pressure
vv = visibility
rr = precipitation

Next stations